Terug naar catalogus

DMSP 5D-2 F13 DEB

ActiefSSO
NORAD 42327·DEBRIS·🇺🇸 United States

Gelanceerd Mar 24, 1995 vanaf Vandenberg Space Force Base

Loading…

Volgende Passages (komende 24 uur)

TLE

VersSource: Space-Track

Epoch: Sep 12, 2026, 08:17 UTC

1 42327U 95015JV  26255.34519850  .00002646  00000-0  83104-3 0  9990
2 42327  98.6712 296.6589 0006942 107.2422 252.9527 14.41348482566263

Volg DMSP 5D-2 F13 DEB in realtime met AllMySat

Download on the App Store